BHS325 MYNN-MYGF

Flight info

Callsign BHS325
Flight time 0h 29m
Altitude 16000
Route PEACH BR65V ZFP
Aircraft DH8D/M-SDE2E3FGRY/H

Departure

Time 2026-04-25 22:53
Airport Lynden Pindling International Airport (MYNN)

Arrival

Time 2026-04-25 23:22
Airport Grand Bahama International Airport (MYGF)
Time Latitude Longitude Altitude Speed Heading
2026-04-25 22:51 25.03817 -77.48158 28 ft 24 kts 220°
2026-04-25 22:51 25.03674 -77.48180 28 ft 20 kts 180°
2026-04-25 22:51 25.03590 -77.48142 26 ft 12 kts 92°
2026-04-25 22:52 25.03592 -77.48074 23 ft 22 kts 88°
2026-04-25 22:52 25.03592 -77.47804 26 ft 77 kts 88°
2026-04-25 22:52 25.03589 -77.46905 56 ft 144 kts 89°
2026-04-25 22:52 25.03566 -77.46139 343 ft 157 kts 92°
2026-04-25 22:53 25.03493 -77.44460 1207 ft 175 kts 93°
2026-04-25 22:53 25.03618 -77.43133 1921 ft 182 kts 63°
2026-04-25 22:53 25.04616 -77.42285 2526 ft 191 kts 13°
2026-04-25 22:53 25.05961 -77.42556 2966 ft 213 kts 333°
2026-04-25 22:54 25.07213 -77.43529 3627 ft 220 kts 324°
2026-04-25 22:54 25.08421 -77.44558 4341 ft 223 kts 323°
2026-04-25 22:54 25.09630 -77.45622 5090 ft 223 kts 322°
2026-04-25 22:54 25.10836 -77.46707 5735 ft 227 kts 321°
2026-04-25 22:55 25.12056 -77.47823 6459 ft 227 kts 320°
2026-04-25 22:55 25.13285 -77.48960 7107 ft 230 kts 319°
2026-04-25 22:55 25.14502 -77.50095 7777 ft 230 kts 319°
2026-04-25 22:55 25.15740 -77.51257 8435 ft 231 kts 318°
2026-04-25 22:56 25.16967 -77.52414 9053 ft 233 kts 318°
2026-04-25 22:56 25.18205 -77.53584 9657 ft 234 kts 318°
2026-04-25 22:56 25.19430 -77.54746 10264 ft 234 kts 318°
2026-04-25 22:56 25.20679 -77.55933 10798 ft 238 kts 318°
2026-04-25 22:57 25.21939 -77.57133 11410 ft 237 kts 317°
2026-04-25 22:57 25.23194 -77.58328 11937 ft 239 kts 317°
2026-04-25 22:57 25.24454 -77.59529 12443 ft 241 kts 317°
2026-04-25 22:57 25.25727 -77.60743 12994 ft 242 kts 317°
2026-04-25 22:58 25.26989 -77.61948 13488 ft 242 kts 317°
2026-04-25 22:58 25.28294 -77.63196 13820 ft 251 kts 317°
2026-04-25 22:58 25.29640 -77.64484 13928 ft 267 kts 318°
2026-04-25 22:58 25.31086 -77.65868 13966 ft 282 kts 317°
2026-04-25 22:59 25.32631 -77.67347 13968 ft 296 kts 317°
2026-04-25 22:59 25.34218 -77.68865 13962 ft 307 kts 317°
2026-04-25 22:59 25.35840 -77.70416 13955 ft 310 kts 317°
2026-04-25 22:59 25.37476 -77.71984 13951 ft 310 kts 317°
2026-04-25 23:00 25.39121 -77.73561 13953 ft 310 kts 317°
2026-04-25 23:00 25.40749 -77.75121 13954 ft 310 kts 317°
2026-04-25 23:00 25.42384 -77.76688 13952 ft 310 kts 317°
2026-04-25 23:00 25.44014 -77.78204 13950 ft 310 kts 320°
2026-04-25 23:01 25.45768 -77.79633 13954 ft 310 kts 322°
2026-04-25 23:01 25.47519 -77.81029 13952 ft 310 kts 322°
2026-04-25 23:01 25.49289 -77.82447 13954 ft 310 kts 322°
2026-04-25 23:01 25.51023 -77.83841 13953 ft 310 kts 322°
2026-04-25 23:02 25.52776 -77.85255 13952 ft 310 kts 322°
2026-04-25 23:02 25.54521 -77.86665 13954 ft 310 kts 322°
2026-04-25 23:02 25.56282 -77.88092 13955 ft 310 kts 322°
2026-04-25 23:02 25.58022 -77.89503 13952 ft 310 kts 322°
2026-04-25 23:03 25.59770 -77.90923 13950 ft 310 kts 322°
2026-04-25 23:03 25.61502 -77.92333 13951 ft 310 kts 322°
2026-04-25 23:03 25.63244 -77.93750 13955 ft 310 kts 322°
2026-04-25 23:03 25.64991 -77.95173 13957 ft 310 kts 322°
2026-04-25 23:04 25.66721 -77.96584 13957 ft 310 kts 322°
2026-04-25 23:04 25.67888 -77.97535 13960 ft 310 kts 322°
2026-04-25 23:04 25.70194 -77.99416 13968 ft 310 kts 322°
2026-04-25 23:04 25.71934 -78.00836 13969 ft 310 kts 322°
2026-04-25 23:05 25.73684 -78.02267 13965 ft 310 kts 322°
2026-04-25 23:05 25.75421 -78.03685 13967 ft 310 kts 322°
2026-04-25 23:05 25.77170 -78.05115 13970 ft 310 kts 322°
2026-04-25 23:05 25.78886 -78.06519 13852 ft 306 kts 322°
2026-04-25 23:06 25.80603 -78.07925 13501 ft 305 kts 322°
2026-04-25 23:06 25.82303 -78.09319 13144 ft 304 kts 322°
2026-04-25 23:06 25.84023 -78.10729 12783 ft 303 kts 322°
2026-04-25 23:06 25.85724 -78.12124 12425 ft 302 kts 322°
2026-04-25 23:07 25.87417 -78.13512 12065 ft 302 kts 322°
2026-04-25 23:07 25.89094 -78.14887 11708 ft 301 kts 322°
2026-04-25 23:07 25.90774 -78.16265 11350 ft 300 kts 322°
2026-04-25 23:07 25.92464 -78.17652 10982 ft 297 kts 322°
2026-04-25 23:08 25.94122 -78.19013 10616 ft 294 kts 322°
2026-04-25 23:08 25.95776 -78.20371 10251 ft 292 kts 322°
2026-04-25 23:08 25.97400 -78.21706 9889 ft 291 kts 322°
2026-04-25 23:08 25.99033 -78.23048 9524 ft 289 kts 322°
2026-04-25 23:09 26.00666 -78.24389 9155 ft 288 kts 322°
2026-04-25 23:09 26.02276 -78.25713 8789 ft 287 kts 322°
2026-04-25 23:09 26.03845 -78.27006 8417 ft 276 kts 322°
2026-04-25 23:09 26.05356 -78.28254 8036 ft 263 kts 323°
2026-04-25 23:10 26.06801 -78.29449 7653 ft 252 kts 323°
2026-04-25 23:10 26.08197 -78.30608 7271 ft 243 kts 322°
2026-04-25 23:10 26.09519 -78.31715 7063 ft 234 kts 323°
2026-04-25 23:10 26.10835 -78.32806 6984 ft 234 kts 323°
2026-04-25 23:11 26.12164 -78.33907 6685 ft 242 kts 323°
2026-04-25 23:11 26.13539 -78.35043 6341 ft 251 kts 323°
2026-04-25 23:11 26.14977 -78.36216 5987 ft 258 kts 324°
2026-04-25 23:11 26.16460 -78.37423 5628 ft 263 kts 324°
2026-04-25 23:12 26.17941 -78.38629 5272 ft 264 kts 324°
2026-04-25 23:12 26.19390 -78.39815 4896 ft 253 kts 324°
2026-04-25 23:12 26.20780 -78.40984 4513 ft 244 kts 320°
2026-04-25 23:12 26.21986 -78.42345 4145 ft 246 kts 313°
2026-04-25 23:13 26.23130 -78.43783 3781 ft 246 kts 313°
2026-04-25 23:13 26.24262 -78.45209 3418 ft 246 kts 313°
2026-04-25 23:13 26.25400 -78.46641 3053 ft 246 kts 313°
2026-04-25 23:13 26.26536 -78.48067 2689 ft 246 kts 313°
2026-04-25 23:14 26.27677 -78.49496 2325 ft 246 kts 313°
2026-04-25 23:14 26.28807 -78.50900 2083 ft 240 kts 314°
2026-04-25 23:14 26.29909 -78.52262 1996 ft 229 kts 314°
2026-04-25 23:14 26.30957 -78.53562 1974 ft 224 kts 314°
2026-04-25 23:15 26.32031 -78.54881 1972 ft 231 kts 314°
2026-04-25 23:15 26.33129 -78.56237 1972 ft 239 kts 314°
2026-04-25 23:15 26.34260 -78.57639 1970 ft 247 kts 314°
2026-04-25 23:15 26.35440 -78.59104 1967 ft 253 kts 314°
2026-04-25 23:16 26.36626 -78.60586 1936 ft 252 kts 314°
2026-04-25 23:16 26.37777 -78.62032 1755 ft 249 kts 314°
2026-04-25 23:16 26.38924 -78.63474 1563 ft 243 kts 314°
2026-04-25 23:16 26.40032 -78.64867 1489 ft 233 kts 314°
2026-04-25 23:17 26.41093 -78.66200 1464 ft 224 kts 313°
2026-04-25 23:17 26.42127 -78.67496 1461 ft 220 kts 313°
2026-04-25 23:17 26.43146 -78.68771 1459 ft 217 kts 314°
2026-04-25 23:17 26.44138 -78.70008 1456 ft 215 kts 314°
2026-04-25 23:18 26.45141 -78.71262 1457 ft 212 kts 314°
2026-04-25 23:18 26.46122 -78.72489 1460 ft 210 kts 314°
2026-04-25 23:18 26.47082 -78.73693 1473 ft 201 kts 314°
2026-04-25 23:18 26.47972 -78.74820 1443 ft 177 kts 313°
2026-04-25 23:19 26.48742 -78.75793 1453 ft 163 kts 314°
2026-04-25 23:19 26.49501 -78.76733 1468 ft 158 kts 315°
2026-04-25 23:19 26.50332 -78.77491 1384 ft 151 kts 340°
2026-04-25 23:19 26.51299 -78.77521 1430 ft 136 kts 24°
2026-04-25 23:20 26.52096 -78.76936 1343 ft 142 kts 52°
2026-04-25 23:20 26.52661 -78.76014 1289 ft 145 kts 60°
2026-04-25 23:20 26.53164 -78.75033 1220 ft 144 kts 62°
2026-04-25 23:20 26.53615 -78.74037 1023 ft 144 kts 62°
2026-04-25 23:21 26.54101 -78.73053 776 ft 144 kts 58°
2026-04-25 23:21 26.54590 -78.72124 531 ft 134 kts 62°
2026-04-25 23:21 26.55040 -78.71208 180 ft 133 kts 62°
2026-04-25 23:21 26.55480 -78.70328 20 ft 117 kts 59°
2026-04-25 23:22 26.55776 -78.69740 19 ft 62 kts 61°
2026-04-25 23:22 26.55881 -78.69511 19 ft 14 kts 83°
2026-04-25 23:22 26.55835 -78.69436 19 ft 12 kts 168°
2026-04-25 23:23 26.55610 -78.69621 19 ft 28 kts 219°
2026-04-25 23:23 26.55439 -78.69783 19 ft 33 kts 221°
2026-04-25 23:23 26.55252 -78.69963 19 ft 36 kts 220°
2026-04-25 23:23 26.55062 -78.70149 19 ft 34 kts 221°
2026-04-25 23:24 26.54929 -78.70234 21 ft 16 kts 137°
2026-04-25 23:24 26.54914 -78.70105 21 ft 17 kts 91°
2026-04-25 23:24 26.54912 -78.69966 21 ft 18 kts 91°
2026-04-25 23:24 26.54911 -78.69832 23 ft 15 kts 91°
2026-04-25 23:25 26.54908 -78.69726 22 ft 12 kts 91°
2026-04-25 23:25 26.54901 -78.69637 23 ft 9 kts 118°
2026-04-25 23:25 26.54862 -78.69647 23 ft 8 kts 272°
2026-04-25 23:25 26.54862 -78.69652 23 ft 0 kts 273°